SWIFT

Last updated on Thu Jul 03 2025 00:02:38 GMT+0000 (Coordinated Universal Time)

1 28485U 04047A 25183.62637312 .00017756 00000+0 42655-3 0 9991 2 28485 20.5551 296.9269 0004786 225.0006 135.0047 15.39023492132475
UTC large
Height (km)
Speed (km/s)
/
Latitude / Longitude
Inclination (degrees)
Orbital Period (minutes)
Azimuth
Elevation
Range (km)
Doppler Factor

Next 0 passes for location: London (51.5072 / 0.1276)

Sorry there are no passes over London.